Flag for Germany Weather past 2 weeks in Mosbach, Baden-Württemberg, Germany

Now
49 °F

Clear.


Feels Like: 49 °F
Forecast: 36 / 64 °F
Wind: 1 mph from East

Location: Oehringen

Current Time: Apr 22, 2015 at 2:09:12 AM

Latest Report: Apr 22, 2015 at 1:00 AM


Visibility: 25 mi

Pressure: 30.36 "Hg

Humidity: 65%

Dew point: 38 °F

Location of MosbachLocation

Historic Weather in Mosbach — Graph

°F

Mosbach temperature yesterday

Maximum temperature yesterday: 72 °F (at 6:00 PM)
Minimum temperature yesterday: 39 °F (at 7:00 AM)
Average temperature yesterday: 56 °F

Past Weeks' High & Low Weather Summary

 TemperatureHumidityPressure
High78 °F (Apr 15, 5:00 PM)94% (Apr 12, 8:00 AM)30.66 "Hg (Apr 12, 8:00 AM)
Low28 °F (Apr 7, 7:00 AM)19% (Apr 15, 7:00 PM)29.86 "Hg (Apr 16, 8:00 PM)
Average53 °F58%30.27 "Hg
* Reported Apr 7 1:00 AM — Apr 22 1:00 AM, Mosbach, Weather by CustomWeather, © 2015

Note: Actual official high and low records may vary slightly from our data, if they occured in-between our weather recording intervals... More about our weather records

Advertising

Mosbach weather history for previous 24 hours

 ConditionsComfort  
Time TempWeatherWind HumidityBarometerVisibility
1:00 AM
Wed, Apr 22
49 °FClear.1 mph65%30.36 "Hg25 mi
12:00 AM51 °FClear.1 mph62%30.36 "Hg25 mi
11:00 PM
Tue, Apr 21
54 °FClear.3 mph56%30.35 "Hg28 mi
10:00 PM58 °FClear.2 mph50%30.34 "Hg31 mi
9:00 PM64 °FClear.1 mph28%30.32 "HgN/A
8:00 PM69 °FSunny.2 mph29%30.29 "Hg43 mi
7:00 PM71 °FSunny.3 mph25%30.28 "Hg43 mi
6:00 PM72 °FSunny.2 mph22%30.29 "Hg43 mi
5:00 PM72 °FSunny.2 mph23%30.30 "Hg34 mi
4:00 PM70 °FSunny.2 mph27%30.32 "Hg25 mi
3:00 PM70 °FSunny.3 mph28%30.34 "Hg22 mi
2:00 PM66 °FSunny.2 mph30%30.37 "Hg25 mi
1:00 PM64 °FSunny.3 mph40%30.38 "Hg22 mi
12:00 PM64 °FSunny.1 mph35%30.39 "Hg34 mi
11:00 AM61 °FSunny.2 mph44%30.40 "Hg22 mi
10:00 AM57 °FSunny.2 mph55%30.40 "Hg14 mi
9:00 AM52 °FSunny.2 mph59%30.41 "Hg14 mi
8:00 AM44 °FSunny.No wind70%30.41 "Hg14 mi
7:00 AM39 °FSunny.2 mph82%30.41 "Hg12 mi
6:00 AM40 °FClear.1 mph81%30.39 "Hg14 mi
5:00 AM40 °FClear.1 mph80%30.38 "Hg16 mi
4:00 AM42 °FClear.1 mph75%30.37 "Hg25 mi
3:00 AM43 °FClear.1 mph71%30.36 "Hg28 mi
2:00 AM44 °FClear.1 mph72%30.36 "Hg22 mi
Weather by CustomWeather, © 2015

See weather overviewHow to use our weather pages